Location: Newark
(47.3150°N, 5.1150°E)
Time: 02:50:07
(UTC+00:00)

AO-7 - Pass Details

Date: 21 December 2019
Orbit: 1440 x 1458 km, 101.8° (Epoch: 23 January)

Event Time Altitude Azimuth Distance (km) Brightness Sun altitude
Rises 02:15:35 0° 24° (NNE) 4,567 ? -50.5°
Reaches altitude 10° 02:18:54 10° 36° (NE) 3,586 ? -50.0°
Maximum altitude 02:25:59 30° 94° (E) 2,397 ? -48.9°
Enters shadow 02:27:07 29° 107° (ESE) 2,434 ? -48.7°
